This is the latest recevied weather packets stored in our database for station/object G7GQA-4. If no packets are shown the sender has not sent any weather packets the latest 10 day(s).
| Time | Temp. | Humidity | Pressure | Rain* | Wind** | Luminosity | Snow |
|---|---|---|---|---|---|---|---|
| 1777551320 | 20.56° C | 31% | - | 0 mm | - | 745 W/m² | - |
| 1777550719 | 20.56° C | 31% | - | 0 mm | - | 747 W/m² | - |
| 1777550119 | 20.56° C | 32% | - | 0 mm | - | 750 W/m² | - |
| 1777548919 | 20° C | 34% | - | 0 mm | - | 746 W/m² | - |
| 1777547719 | 19.44° C | 35% | - | 0 mm | - | 739 W/m² | - |
| 1777546519 | 19.44° C | 38% | - | 0 mm | - | 731 W/m² | - |
| 1777545318 | 18.89° C | 40% | - | 0 mm | - | 707 W/m² | - |
| 1777544718 | 18.33° C | 41% | - | 0 mm | - | 694 W/m² | - |
| 1777544119 | 18.33° C | 42% | - | 0 mm | - | 677 W/m² | - |
| 1777543518 | 18.33° C | 43% | - | 0 mm | - | 659 W/m² | - |
| 1777542918 | 17.78° C | 45% | - | 0 mm | - | 297 W/m² | - |
| 1777541731 | 17.22° C | 48% | - | 0 mm | - | 597 W/m² | - |
| 1777541130 | 16.67° C | 48% | - | 0 mm | - | 579 W/m² | - |
| 1777540531 | 16.67° C | 49% | - | 0 mm | - | 561 W/m² | - |
| 1777539931 | 16.11° C | 49% | - | 0 mm | - | 542 W/m² | - |
| 1777539330 | 16.11° C | 48% | - | 0 mm | - | 522 W/m² | - |
| 1777538731 | 16.11° C | 48% | - | 0 mm | - | 497 W/m² | - |
| 1777538131 | 15° C | 50% | - | 0 mm | - | 467 W/m² | - |
| 1777537531 | 15.56° C | 50% | - | 0 mm | - | 440 W/m² | - |
| 1777536931 | 15.56° C | 50% | - | 0 mm | - | 412 W/m² | - |
| 1777536331 | 14.44° C | 51% | - | 0 mm | - | 384 W/m² | - |
| 1777535731 | 14.44° C | 51% | - | 0 mm | - | 356 W/m² | - |
| 1777535131 | 14.44° C | 52% | - | 0 mm | - | 327 W/m² | - |
| 1777534530 | 13.89° C | 53% | - | 0 mm | - | 298 W/m² | - |
| 1777533931 | 13.89° C | 54% | - | 0 mm | - | 269 W/m² | - |
* Rain latest hour (hover to see other rain measurements)
** Current wind speed in m/s (hover to see current wind gust speed)